Regional Weather Roundup
Issued by NWS

Home | Current Version | Previous Version | Text Only | Print | Product List | Glossary Off
Versions: 1 2 3 4 5 6 7 8 9 10 11 12 13 14 15 16 17 18 19 20 21 22 23 24 25 26 27 28 29 30 31 32 33 34 35 36 37 38 39 40 41 42 43 44 45 46 47 48 49 50

000
ASUS43 KOAX 041910
RWRNE

WEATHER ROUNDUP FOR NEBRASKA
NATIONAL WEATHER SERVICE OMAHA NE
200 PM CDT SAT JUL 04 2015

NOTES: SATELLITE DATA IS BEING USED TO AUGMENT CLOUD COVER ABOVE
       12000 FEET.
       "FAIR" INDICATES FEW OR NO CLOUDS BELOW 12,000 FEET WITH NO
       SIGNIFICANT WEATHER AND/OR OBSTRUCTIONS TO VISIBILITY.

  * THESE STATIONS DO NOT REPORT WEATHER SUCH AS RAIN...SNOW OR FOG.

NEZ001>004-019>022-054>056-042000-
NEBRASKA PANHANDLE

CITY           SKY/WX    TMP DP  RH WIND       PRES   REMARKS
SCOTTSBLUFF    SUNNY     90  64  42 SE12G18   29.90F HX  91
ALLIANCE       SUNNY     86  64  47 S10       29.91S
CHADRON        SUNNY     89  64  43 VRB7      29.85S HX  90
KIMBALL          N/A    N/A N/A N/A MISG        N/A
SIDNEY         SUNNY     89  58  34 S12G18    29.95F
$$

NEZ057>060-069>072-079>082-042000-
SOUTHWEST NEBRASKA

CITY           SKY/WX    TMP DP  RH WIND       PRES   REMARKS
NORTH PLATTE   SUNNY     87  64  46 S16       29.92F
IMPERIAL       SUNNY     91  59  33 S17G24    29.92F HX  90
LEXINGTON      MOSUNNY   85  66  52 S16G22    29.95S
MCCOOK         SUNNY     91  61  36 SE16G26   29.91F HX  91
OGALLALA       SUNNY     87  63  44 S17G23    29.92S
$$

NEZ005>010-023>029-035>040-094-042000-
NORTH CENTRAL NEBRASKA

CITY           SKY/WX    TMP DP  RH WIND       PRES   REMARKS
VALENTINE      SUNNY     88  64  44 S17       29.87F
AINSWORTH      SUNNY     86  65  49 S15G22    29.90F
BROKEN BOW     SUNNY     85  66  53 S14G28    29.94S
O`NEILL        MOSUNNY   83  65  53 S13       29.93S
ORD            MOSUNNY   84  63  49 S16G25    29.93S
THEDFORD       SUNNY     86  65  49 S16G24    29.92F
$$

NEZ041-046>049-061>064-073>077-083>087-042000-
SOUTH CENTRAL NEBRASKA

CITY           SKY/WX    TMP DP  RH WIND       PRES   REMARKS
GRAND ISLAND   MOSUNNY   83  65  54 SE15      29.97F
AURORA         MOSUNNY   80  65  60 S13G18    29.97F
HASTINGS       MOSUNNY   83  65  54 S13       29.97F
HEBRON         PTSUNNY   80  60  50 SE7       29.98F
HOLDREGE       SUNNY     82  62  50 S16       29.96F
KEARNEY *      SUNNY     82  64  54 S20G25    29.96S
YORK           PTSUNNY   77  66  69 S12G17    29.98F
$$

NEZ011>018-030>034-042>045-042000-
NORTHEAST NEBRASKA

CITY           SKY/WX    TMP DP  RH WIND       PRES   REMARKS
NORFOLK        PTSUNNY   80  65  59 S13       29.96F
ALBION         MOSUNNY   81  64  56 S14       29.96S
BLAIR          MOSUNNY   79  60  52 S8        29.98S
COLUMBUS *     PTSUNNY   79  63  57 S8        29.99S
FREMONT        PTSUNNY   80  62  55 S8        29.99S
TEKAMAH        MOSUNNY   82  62  50 S8        29.96F
WAYNE          PTSUNNY   78  65  65 S10       29.97S
$$

NEZ050>053-065>068-078-088>093-042000-
SOUTHEAST NEBRASKA

CITY           SKY/WX    TMP DP  RH WIND       PRES   REMARKS
LINCOLN        CLOUDY    81  64  56 SE13      29.99S
OMAHA EPPLEY   PTSUNNY   80  58  46 SE12      29.98F
BEATRICE       PTSUNNY   80  62  55 SE8       29.98F
FALLS CITY     MOSUNNY   81  61  50 VRB7      29.99S
NEBRASKA CITY  MOSUNNY   79  55  44 S10       30.00S
PLATTSMOUTH    PTSUNNY   78  59  51 SE10      29.99F
$$

NEZ044-045-051>053-067-042000-
OMAHA AREA

CITY           SKY/WX    TMP DP  RH WIND       PRES   REMARKS
OMAHA EPPLEY   PTSUNNY   80  58  46 SE12      29.98F
BLAIR          MOSUNNY   79  60  52 S8        29.98S
FREMONT        PTSUNNY   80  62  55 S8        29.99S
MILLARD        PTSUNNY   80  63  56 SE9       29.98S
OFFUTT AFB     PTSUNNY   80  63  55 SE8       29.98F
PLATTSMOUTH    PTSUNNY   78  59  51 SE10      29.99F
WAHOO          FAIR      80  63  56 SE10      29.98S
$$


USA.gov is the U.S. government's official web portal to all federal, state and local government web resources and services.